Weather History for Wheaton NDB, MN

Change the Weather History Date:

Monday, November 5, 2012

  Actual Average Record
Temperature  
Mean Temperature 36 °F -  
Max Temperature 39 °F 45 °F 78 °F (2001)
Min Temperature 33 °F 27 °F -3 °F (1951)
Degree Days  
Heating Degree Days 29    
Moisture  
Dew Point 34 °F    
Average Humidity 89    
Maximum Humidity 100    
Minimum Humidity 81    
Precipitation  
Precipitation 0.07 in - - ()
Sea Level Pressure  
Sea Level Pressure 30.10 in    
Wind  
Wind Speed 5 mph (SSW)    
Max Wind Speed 15 mph    
Max Gust Speed 20 mph    
Visibility 10 miles    
Events Rain    
Averages and records for this station are not official NWS values.
T = Trace of Precipitation, MM = Missing Value Source: NWS Daily Summary

Daily Weather History Graph

Daily Weather History Graph

Search for Another Location

Airport:

Trip Planner

Search our weather history database for the weather conditions in past years. The results will help you decide how hot, cold, wet, or windy it might be!

Date:

Astronomy

Nov. 05, 2012 Rise Set
Actual Time 7:12 AM CST 5:06 PM CST
Civil Twilight 6:41 AM CST 5:37 PM CST
Nautical Twilight 6:05 AM CST 6:13 PM CST
Astronomical Twilight 5:30 AM CST 6:47 PM CST
Moon 10:45 PM CST (11/5) 12:33 PM CST (11/5)
Length of Visible Light 10h 56m
Length of Day
9h 53m
Waning Gibbous, 62% of the Moon is Illuminated
Nov 5
Waning Gibbous
Nov 6
Last Quarter
Nov 13
New
Nov 20
First Quarter
Nov 28
Full

Hourly Weather History & Observations

Time (CST) Temp. Windchill Dew Point Humidity Pressure Visibility Wind Dir Wind Speed Gust Speed Precip Events Conditions
12:15 AM 35.6 °F 30.7 °F 33.8 °F 93% 30.20 in 10.0 mi North 5.8 mph - N/A   Overcast
12:34 AM 35.6 °F 30.7 °F 33.8 °F 93% 30.20 in 10.0 mi North 5.8 mph - N/A   Overcast
12:54 AM 35.6 °F 30.7 °F 33.8 °F 93% 30.20 in 10.0 mi North 5.8 mph - N/A   Overcast
1:15 AM 35.6 °F 30.7 °F 33.8 °F 93% 30.21 in 10.0 mi NNW 5.8 mph - N/A   Overcast
1:35 AM 35.6 °F 30.7 °F 33.8 °F 93% 30.21 in 10.0 mi NNW 5.8 mph - N/A   Overcast
1:55 AM 35.6 °F 30.7 °F 33.8 °F 93% 30.21 in 10.0 mi NNW 5.8 mph - N/A   Overcast
2:14 AM 35.6 °F 30.7 °F 33.8 °F 93% 30.21 in 10.0 mi NNW 5.8 mph - N/A   Overcast
2:35 AM 35.6 °F 30.7 °F 33.8 °F 93% 30.21 in 10.0 mi NNW 5.8 mph - N/A   Overcast
2:54 AM 35.6 °F 31.7 °F 33.8 °F 93% 30.21 in 10.0 mi NNW 4.6 mph - N/A   Overcast
3:14 AM 35.6 °F 31.7 °F 33.8 °F 93% 30.21 in 10.0 mi NNW 4.6 mph - N/A   Overcast
3:34 AM 35.6 °F 31.7 °F 33.8 °F 93% 30.21 in 10.0 mi NNW 4.6 mph - N/A   Overcast
3:54 AM 35.6 °F 30.7 °F 33.8 °F 93% 30.21 in 10.0 mi NNW 5.8 mph - N/A   Overcast
4:14 AM 35.6 °F 30.7 °F 33.8 °F 93% 30.21 in 10.0 mi NNW 5.8 mph - N/A   Overcast
4:34 AM 35.6 °F 30.7 °F 33.8 °F 93% 30.22 in 10.0 mi NW 5.8 mph - N/A   Overcast
4:54 AM 35.6 °F 30.7 °F 33.8 °F 93% 30.22 in 10.0 mi NW 5.8 mph - N/A   Overcast
5:14 AM 35.6 °F 29.9 °F 33.8 °F 93% 30.23 in 10.0 mi NNW 6.9 mph - N/A   Overcast
5:34 AM 35.6 °F 29.9 °F 33.8 °F 93% 30.22 in 10.0 mi NW 6.9 mph - N/A   Overcast
5:54 AM 35.6 °F 31.7 °F 33.8 °F 93% 30.22 in 10.0 mi NNW 4.6 mph - N/A   Overcast
6:14 AM 35.6 °F 31.7 °F 33.8 °F 93% 30.21 in 10.0 mi NNW 4.6 mph - N/A   Overcast
6:34 AM 35.6 °F - 33.8 °F 93% 30.21 in 10.0 mi Calm Calm - N/A   Overcast
6:55 AM 35.6 °F - 33.8 °F 93% 30.20 in 10.0 mi Calm Calm - N/A   Overcast
7:14 AM 33.8 °F 29.6 °F 33.8 °F 100% 30.20 in 10.0 mi North 4.6 mph - N/A   Overcast
7:34 AM 33.8 °F - 32.0 °F 93% 30.20 in 10.0 mi Calm Calm - N/A   Overcast
7:54 AM 33.8 °F - 33.8 °F 100% 30.20 in 10.0 mi Calm Calm - N/A   Overcast
8:14 AM 35.6 °F - 33.8 °F 93% 30.21 in 10.0 mi Calm Calm - N/A   Overcast
8:34 AM 35.6 °F - 33.8 °F 93% 30.21 in 10.0 mi Calm Calm - N/A   Overcast
8:54 AM 35.6 °F - 33.8 °F 93% 30.20 in 10.0 mi Calm Calm - N/A   Overcast
9:15 AM 35.6 °F - 32.0 °F 87% 30.21 in 10.0 mi Calm Calm - N/A   Overcast
9:34 AM 35.6 °F - 32.0 °F 87% 30.20 in 10.0 mi Calm Calm - N/A   Overcast
9:54 AM 35.6 °F - 32.0 °F 87% 30.20 in 10.0 mi Calm Calm - N/A   Overcast
10:14 AM 35.6 °F - 32.0 °F 87% 30.20 in 10.0 mi Calm Calm - N/A   Overcast
10:34 AM 37.4 °F - 33.8 °F 87% 30.20 in 10.0 mi Calm Calm - N/A   Overcast
10:54 AM 37.4 °F - 32.0 °F 81% 30.20 in 10.0 mi Calm Calm - N/A   Overcast
11:14 AM 37.4 °F - 32.0 °F 81% 30.20 in 10.0 mi Calm Calm - N/A   Overcast
11:35 AM 37.4 °F - 33.8 °F 87% 30.19 in 10.0 mi Calm Calm - N/A   Overcast
11:54 AM 37.4 °F 34.9 °F 33.8 °F 87% 30.18 in 10.0 mi West 3.5 mph - N/A   Overcast
12:15 PM 37.4 °F - 33.8 °F 87% 30.16 in 10.0 mi Calm Calm - N/A   Mostly Cloudy
12:35 PM 39.2 °F - 33.8 °F 81% 30.14 in 10.0 mi Calm Calm - N/A   Mostly Cloudy
12:54 PM 39.2 °F - 33.8 °F 81% 30.13 in 10.0 mi Calm Calm - N/A   Overcast
1:14 PM 39.2 °F - 33.8 °F 81% 30.12 in 10.0 mi Calm Calm - N/A   Overcast
1:34 PM 39.2 °F - 33.8 °F 81% 30.11 in 10.0 mi Calm Calm - N/A   Overcast
1:55 PM 39.2 °F - 33.8 °F 81% 30.10 in 10.0 mi Calm Calm - N/A   Overcast
2:14 PM 39.2 °F 37.0 °F 33.8 °F 81% 30.09 in 10.0 mi SW 3.5 mph - N/A   Overcast
2:35 PM 39.2 °F 35.9 °F 33.8 °F 81% 30.09 in 10.0 mi South 4.6 mph - N/A   Overcast
2:54 PM 39.2 °F 35.0 °F 33.8 °F 81% 30.08 in 10.0 mi South 5.8 mph - N/A   Overcast
3:14 PM 39.2 °F 35.9 °F 33.8 °F 81% 30.08 in 10.0 mi South 4.6 mph - N/A   Overcast
3:34 PM 39.2 °F 35.0 °F 33.8 °F 81% 30.07 in 10.0 mi South 5.8 mph - N/A   Overcast
3:55 PM 39.2 °F 35.0 °F 33.8 °F 81% 30.06 in 10.0 mi SSE 5.8 mph - N/A   Overcast
4:14 PM 39.2 °F 33.6 °F 35.6 °F 87% 30.05 in 10.0 mi SE 8.1 mph - N/A   Overcast
4:35 PM 39.2 °F 33.6 °F 35.6 °F 87% 30.04 in 10.0 mi SSE 8.1 mph - N/A   Overcast
4:54 PM 39.2 °F 35.0 °F 35.6 °F 87% 30.04 in 10.0 mi SSE 5.8 mph - N/A   Overcast
5:14 PM 39.2 °F 34.2 °F 35.6 °F 87% 30.03 in 10.0 mi South 6.9 mph - N/A   Overcast
5:34 PM 39.2 °F 32.5 °F 33.8 °F 81% 30.03 in 10.0 mi SSW 10.4 mph - N/A   Overcast
5:54 PM 37.4 °F 30.8 °F 33.8 °F 87% 30.03 in 10.0 mi SSW 9.2 mph - N/A   Overcast
6:14 PM 37.4 °F 31.4 °F 33.8 °F 87% 30.02 in 10.0 mi SSW 8.1 mph - N/A   Mostly Cloudy
6:34 PM 37.4 °F 31.4 °F 33.8 °F 87% 30.01 in 10.0 mi SSW 8.1 mph - N/A   Scattered Clouds
6:54 PM 37.4 °F 30.3 °F 33.8 °F 87% 30.01 in 10.0 mi SSW 10.4 mph - N/A   Clear
7:14 PM 37.4 °F 30.3 °F 33.8 °F 87% 29.98 in 10.0 mi South 10.4 mph - N/A   Mostly Cloudy
7:34 PM 37.4 °F 30.3 °F 33.8 °F 87% 29.96 in 10.0 mi SSE 10.4 mph - N/A   Overcast
7:54 PM 37.4 °F 29.8 °F 33.8 °F 87% 29.94 in 10.0 mi SSE 11.5 mph - N/A   Overcast
8:14 PM 37.4 °F 29.8 °F 33.8 °F 87% 29.93 in 10.0 mi SSE 11.5 mph 17.3 mph N/A   Overcast
8:34 PM 37.4 °F 28.9 °F 33.8 °F 87% 29.91 in 10.0 mi SSE 13.8 mph 17.3 mph N/A   Overcast
8:55 PM 37.4 °F 30.3 °F 33.8 °F 87% 29.91 in 10.0 mi South 10.4 mph - N/A   Overcast
9:14 PM 37.4 °F 29.8 °F 33.8 °F 87% 29.90 in 10.0 mi SSE 11.5 mph - N/A   Overcast
9:34 PM 37.4 °F 29.3 °F 33.8 °F 87% 29.89 in 7.0 mi South 12.7 mph - N/A Rain Light Rain
9:55 PM 37.4 °F 32.1 °F 35.6 °F 93% 29.91 in 5.0 mi South 6.9 mph - 0.03 in Rain Light Rain
10:14 PM 37.4 °F 30.3 °F 35.6 °F 93% 29.88 in 5.0 mi SSE 10.4 mph - N/A Rain Light Rain
10:34 PM 37.4 °F 31.4 °F 35.6 °F 93% 29.86 in 7.0 mi SSE 8.1 mph - 0.01 in Rain Rain
10:55 PM 37.4 °F 29.3 °F 35.6 °F 93% 29.84 in 7.0 mi SSE 12.7 mph - 0.01 in Rain Light Rain
11:14 PM 37.4 °F 29.3 °F 35.6 °F 93% 29.83 in 7.0 mi SSE 12.7 mph - N/A Rain Light Rain
11:34 PM 37.4 °F 28.5 °F 35.6 °F 93% 29.82 in 7.0 mi SSE 15.0 mph 19.6 mph 0.02 in Rain Light Rain
11:54 PM 37.4 °F 29.8 °F 35.6 °F 93% 29.82 in 7.0 mi SSE 11.5 mph - 0.03 in Rain Light Rain